{"data":{"norad_id":45414,"epoch":"2026-09-20T05:10:49.815840Z","epoch_age_seconds":39068,"freshness":"FRESH","line1":"1 45414U 20019BG  26263.21585435  .00154156  19761-4  50576-3 0  9998","line2":"2 45414  53.0500 239.6605 0005961  55.7600 304.3989 15.90272145360627","mean_motion":15.90272145,"eccentricity":0.0005961,"inclination_deg":53.05,"raan_deg":239.6605,"arg_perigee_deg":55.76,"mean_anomaly_deg":304.3989,"bstar":0.00050576,"rev_number":36062,"period_min":90.550539071412,"perigee_km":297.53894243167,"apogee_km":305.50243032537,"semimajor_km":6679.6576863785,"source":"CELESTRAK","updated_at":"2026-09-20T09:00:38.235120Z"}}